Regional Weather Roundup
Issued by NWS

Home | Current Version | Previous Version | Text Only | Print | Product List | Glossary Off
Versions: 1 2 3 4 5 6 7 8 9 10 11 12 13 14 15 16 17 18 19 20 21 22 23 24 25 26 27 28 29 30 31 32 33 34 35 36 37 38 39 40 41 42 43 44 45 46 47 48 49 50

000
ASUS45 KSLC 291510
RWRUT

UTAH REGIONAL WEATHER ROUNDUP
NATIONAL WEATHER SERVICE SALT LAKE CITY UT
900 AM MDT SAT AUG 29 2015

UTZ001>011-023>025-291600-

NORTHERN UTAH

CITY           SKY/WX    TMP DP  RH WIND       PRES   REMARKS
BRIGHAM CITY   MOSUNNY   66  47  49 CALM      30.08S
HILL AFB       SUNNY     72  39  30 E17G24    30.10S
LOGAN          SUNNY     63  45  51 N5        30.10R
OGDEN          MOSUNNY   74  41  30 S10       30.07S
PROVO AIRPORT  MOSUNNY   70  43  37 CALM      30.14S
SALT LAKE CITY CLOUDY    78  42  27 SE18      30.06S
VERNAL         SUNNY     69  41  36 CALM      30.26R
WENDOVER         N/A     73  39  29 NE12      30.04S
HEBER CITY     MOSUNNY   57  45  62 CALM      30.24S
WEST JORDAN    SUNNY     77  43  29 S8        30.11S

$$

UTZ012>022-026-027-291600-

SOUTHERN/CENTRAL UTAH

CITY           SKY/WX    TMP DP  RH WIND       PRES   REMARKS
BLANDING       SUNNY     71  42  34 CALM      30.38R
BRYCE CANYON   SUNNY     60  45  57 W5        30.40F
CEDAR CITY     SUNNY     76  44  32 W3        30.21R
DELTA          MOSUNNY   72  39  30 CALM      30.14R
HANKSVILLE     SUNNY     64  45  48 CALM      30.20S
MILFORD        MOSUNNY   72  43  35 S13       30.16R
MOAB/CYNLANDS  SUNNY     75  44  33 S5        30.18S
PRICE          PTSUNNY   70  37  29 SW3       30.27S
ST GEORGE      MOSUNNY   79  48  34 N5        30.05S
KANAB          SUNNY     72  52  49 N9        30.25S

$$

REGIONAL REPORTS     COLORADO/ARIZONA

CITY           SKY/WX    TMP DP  RH WIND       PRES   REMARKS
CRAIG, CO      SUNNY     59  48  67 CALM      30.33F
GRAND JUNCTION SUNNY     69  47  45 SE10      30.23S
RIFLE          SUNNY     61  47  59 CALM      30.31S
MONTROSE       SUNNY     64  45  49 S3        30.32S
CORTEZ         SUNNY     72  50  45 N3        30.31R
PAGE, AZ       SUNNY     76  48  37 NW6       30.16R
GRAND CANYON   SUNNY     72  44  36 CALM      30.32S
KINGMAN        SUNNY     87  53  31 SE5       30.05R
FLAGSTAFF      SUNNY     64  51  62 CALM      30.36R

$$

REGIONAL REPORTS    NEVADA/IDAHO/WYOMING

CITY           SKY/WX    TMP DP  RH WIND       PRES   REMARKS
LAS VEGAS, NV  MOSUNNY   91  45  20 SW7       29.89R
ELY            PTSUNNY   68  44  42 SW13      30.21S
ELKO           PTSUNNY   62  46  55 E6        30.07R
POCATELLO, ID  CLOUDY    82  34  17 SW6       30.03S THUNDER
EVANSTON, WY   MOSUNNY   66  35  31 CALM      30.31S
ROCK SPRINGS   SUNNY     63  34  33 VRB3      30.31S
KEMMERER       MOSUNNY   59  36  41 N8        30.33F

$$



USA.gov is the U.S. government's official web portal to all federal, state and local government web resources and services.